Regional Weather Roundup
Issued by NWS

Home | Current Version | Previous Version | Graphics & Text | Print | Product List | Glossary On
Versions: 1 2 3 4 5 6 7 8 9 10 11 12 13 14 15 16 17 18 19 20 21 22 23 24 25 26 27 28 29 30 31 32 33 34 35 36 37 38 39 40 41 42 43 44 45 46 47 48 49 50
000
ASUS45 KBOU 300207
RWRCO

WEATHER ROUNDUP FOR COLORADO
NATIONAL WEATHER SERVICE DENVER/BOULDER CO
800 PM MDT FRI MAY 29 2015

NOTE: "FAIR" INDICATES FEW OR NO CLOUDS BELOW 12000 FEET WITH NO
SIGNIFICANT WEATHER AND/OR OBSTRUCTIONS TO VISIBILITY.

COZ001>005-013-030-031-300300-
...NORTHWEST COLORADO...

CITY           SKY/WX    TMP DP  RH WIND       PRES   REMARKS
CRAIG          PTCLDY    58  41  53 E7        30.27S
HAYDEN         PTCLDY    54  39  58 SE6       30.29S
MEEKER         CLEAR     60  42  51 N8        30.26S
MOUNT WERNER   NOT AVBL
STEAMBOAT SPGS PTCLDY    55  40  56 CALM      30.31R
WALDEN         PTCLDY    50  36  57 CALM      30.36S
$$

COZ006>008-011-300300-
...WEST CENTRAL VALLEYS...

CITY           SKY/WX    TMP DP  RH WIND       PRES   REMARKS
GRAND JUNCTION CLEAR     70  41  34 W6        30.14R
MONTROSE       CLEAR     68  31  25 NW8       30.21R
EAGLE          PTCLDY    64  46  52 E10       30.31R
RIFLE          CLEAR     68  39  34 N7        30.19R
DELTA          CLEAR     73  35  24 W7        30.15S
NUCLA          CLEAR     70  28  21 NW6       30.22R
$$

COZ017>023-064>068-300300-
...SOUTHWEST COLORADO...

CITY           SKY/WX    TMP DP  RH WIND       PRES   REMARKS
DURANGO        CLEAR     67  23  19 W16       30.18R
CORTEZ         CLEAR     69  23  17 N8        30.17R
PAGOSA SPRINGS CLEAR     59  34  38 CALM      30.25S
TELLURIDE      PTCLDY    54  31  41 CALM      30.37S
WOLF CREEK PAS NOT AVBL
$$

COZ009-010-012-014-032>034-037-058>063-300300-
...CENTRAL COLORADO...

CITY           SKY/WX    TMP DP  RH WIND       PRES   REMARKS
ASPEN          CLOUDY    57  34  41 N6        30.30R
BUENA VISTA    MOCLDY    57  27  31 NW10      30.30R
COPPER MTN     SNOW      34  30  86 W15G21    30.52S VSB 1/4 WCI  24
BERTHOUD PASS  HVY SNOW  27  19  74 NW20G26   30.54R VSB<1/4 WCI  13
COTTONWOOD PAS MOCLDY    52  23  32 NW6       30.40R
GUNNISON       PTCLDY    61  28  29 W7        30.31R
KREMMLING      MOCLDY    52  37  58 E13       30.35R
LEADVILLE      LGT RAIN  38  34  85 N10       30.43R
MONARCH PASS   PTCLDY    37  27  65 W13       30.60R
SALIDA         MOCLDY    61  30  31 NW5       30.33R
SUNLIGHT       PTCLDY    45  32  61 N5        30.49R
WILKERSON PASS SNOW      34  32  93 E7        30.50R VSB<1/4 WCI  28
$$

COZ069>075-300300-
...SAN LUIS VALLEY/SANGRE DE CRISTO MOUNTAINS...

CITY           SKY/WX    TMP DP  RH WIND       PRES   REMARKS
ALAMOSA        MOCLDY    59  27  29 N10       30.25R
LA VETA PASS   PTCLDY   N/A N/A N/A MISG      30.43R
SAGUACHE       PTCLDY    61  30  31 N6        30.27R
$$

COZ035-036-038>040-300300-
...NORTHERN COLORADO FRONT RANGE...

CITY           SKY/WX    TMP DP  RH WIND       PRES   REMARKS
DENVER INTL AP MOCLDY    53  46  77 N10       30.31R
DMNS CITY PARK   N/A     54  46  74 NE8       30.32R
AURORA         MOCLDY    52  46  78 N10       30.32R
FRONT RANGE AP MOCLDY    55  48  76 N7        30.32R
ERIE MUNI ARPT CLOUDY    54  49  82 NE6       30.30S
BOULDER MUN AP CLOUDY    54  48  82 N5        30.31R
CENTENNIAL     CLOUDY    53  45  74 NE10      30.32R
BROOMFIELD     MOCLDY    54  50  87 N8        30.32R
FORT COLLINS   CLOUDY    52  46  82 NE6       30.32R
LONGMONT       CLOUDY    56  49  75 N8        30.32S
$$

COZ041-046-047-076>085-087-088-300300-
...PIKES PEAK/PALMER DIVIDE AND SOUTHERN FOOTHILLS...

CITY           SKY/WX    TMP DP  RH WIND       PRES   REMARKS
COLO. SPRINGS  TSTM      52  47  83 N7        30.31R
A. F. ACADEMY  CLOUDY    51  44  77 N13       30.32R
ELLICOTT       CLOUDY   N/A N/A N/A NE17G26   30.27R
FALCON         LGT RAIN  50  44  79 N15G22    30.34R
FORT CARSON    TSTM      50  46  87 N10       30.28S
LIMON          CLOUDY    53  47  79 N18G24    30.28R
MONUMENT HILL  DRIZZLE   46  43  87 MISG      30.35R
TRINIDAD       CLOUDY    51  47  86 SE13      30.24S
$$

COZ042>045-048>051-090-091-300300-
...NORTHEAST COLORADO...

CITY           SKY/WX    TMP DP  RH WIND       PRES   REMARKS
GREELEY ARPT   CLOUDY    52  46  82 NE10      30.29S
AKRON          CLOUDY    49  46  90 N16       30.27R
BURLINGTON     MOCLDY    56  48  74 N15       30.23R
WRAY           LGT RAIN  54  50  86 N15G23    30.24R
STERLING       CLOUDY    52  46  82 NE8       30.27R
HOLYOKE        CLOUDY    54  46  76 N13G21    30.26R
FORT MORGAN    MOCLDY    52  44  74 N14G20    30.28S
$$

COZ086-089-092>099-300300-
...SOUTHEAST COLORADO...

CITY           SKY/WX    TMP DP  RH WIND       PRES   REMARKS
PUEBLO         CLOUDY    63  46  54 NE24      30.20R
LA JUNTA       MOCLDY    66  46  48 NE16      30.19R
LAMAR          MOCLDY    64  48  56 NE13      30.15R
SPRINGFIELD      N/A     59  49  69 N8        30.15R
$$


USA.gov is the U.S. government's official web portal to all federal, state and local government web resources and services.